Location: Moscow
(55.7500°N, 37.5830°E)
Time: 02:43:30
(UTC+03:00)

Vanguard 1 Rocket - Visible Passes

Search period start: 30 November 2021 00:00
Search period end: 10 December 2021 00:00
Orbit: 650 x 4226 km, 34.3° (Epoch: 29 November)

Date Brightness Start Highest point End Pass type
(mag) Time Alt. Az. Time Alt. Az. Time Alt. Az.
30 Nov 10.9 02:10:07 15° SE 02:12:21 15° SE 02:21:15 10° ESE visible
30 Nov 10.6 04:27:25 19° SSW 04:36:34 33° SSE 04:55:36 10° ESE visible
30 Nov 11.0 06:47:39 10° WSW 07:03:39 38° S 07:25:36 10° SE visible
01 Dec 10.5 03:20:17 23° S 03:24:49 26° SSE 03:40:08 10° E visible
01 Dec 10.7 05:37:34 13° SW 05:50:40 38° S 06:11:41 10° ESE visible
02 Dec 10.8 02:13:07 18° SE 02:13:45 18° SE 02:23:46 10° ESE visible
02 Dec 10.4 04:30:24 22° SSW 04:38:13 34° SSE 04:57:01 10° ESE visible
02 Dec 10.9 06:50:01 10° WSW 07:05:15 36° S 07:26:31 10° SE visible
03 Dec 10.4 03:23:13 26° S 03:26:25 28° SSE 03:41:47 10° ESE visible
03 Dec 10.6 05:40:30 15° SW 05:52:22 36° S 06:12:47 10° ESE visible
04 Dec 10.7 02:16:01 19° SE 02:16:01 19° SE 02:25:57 10° ESE visible
04 Dec 10.3 04:33:18 25° SSW 04:39:57 34° SSE 04:58:18 10° ESE visible
04 Dec 10.8 06:52:32 10° WSW 07:06:54 33° SSW 07:27:10 10° SE visible
05 Dec 10.3 03:26:04 28° S 03:28:08 28° SSE 03:43:18 10° ESE visible
05 Dec 10.5 05:43:21 16° SW 05:54:09 35° S 06:13:42 10° SE visible
06 Dec 10.6 02:18:50 21° SE 02:18:50 21° SE 02:27:53 10° ESE visible
06 Dec 10.2 04:36:07 26° SSW 04:41:48 33° S 04:59:27 10° ESE visible
06 Dec 10.8 06:55:13 10° WSW 07:08:36 30° SSW 07:27:31 10° SSE visible
07 Dec 10.3 03:28:52 28° SSE 03:29:59 29° SSE 03:44:43 10° ESE visible
07 Dec 10.5 05:46:09 16° SW 05:55:58 32° S 06:14:24 10° SE visible
08 Dec 10.6 02:21:37 21° SE 02:21:37 21° SE 02:29:41 10° ESE visible
08 Dec 10.2 04:38:54 26° SSW 04:43:42 31° S 05:00:28 10° SE visible
08 Dec 10.8 06:58:06 10° WSW 07:10:21 26° SSW 07:27:28 10° SSE visible
09 Dec 10.2 03:31:39 28° SSE 03:31:56 28° SSE 03:46:01 10° ESE visible
09 Dec 10.5 05:48:55 16° SW 05:57:52 29° SSW 06:14:51 10° SE visible
